Weather History for Edinburgh Airport, United Kingdom

Change the Weather History Date:

Sunday, April 21, 2013

  Actual Average Record
Temperature  
Mean Temperature 48 °F -  
Max Temperature 53 °F 56 °F 62 °F (2007)
Min Temperature 41 °F 41 °F 32 °F (2005)
Degree Days  
Heating Degree Days 18    
Moisture  
Dew Point 40 °F    
Average Humidity 74    
Maximum Humidity 87    
Minimum Humidity 54    
Precipitation  
Precipitation 0.00 in 0.06 in - ()
Sea Level Pressure  
Sea Level Pressure 29.93 in    
Wind  
Wind Speed 14 mph ()    
Max Wind Speed 20 mph    
Max Gust Speed -    
Visibility 6.2 miles    
Events Rain    
Averages and records for this station are not official NWS values.
T = Trace of Precipitation, MM = Missing Value Source: Averaged Metar Reports

Daily Weather History Graph

Daily Weather History Graph

Search for Another Location

Airport:

Trip Planner

Search our weather history database for the weather conditions in past years. The results will help you decide how hot, cold, wet, or windy it might be!

Date:

Astronomy

Apr. 21, 2013 Rise Set
Actual Time 5:52 AM BST 8:32 PM BST
Civil Twilight 5:11 AM BST 9:14 PM BST
Nautical Twilight 4:17 AM BST 10:09 PM BST
Astronomical Twilight 3:07 AM BST 11:20 PM BST
Moon 3:17 PM BST (4/21) 3:57 AM BST (4/21)
Length of Visible Light 16h 02m
Length of Day
14h 39m
Waxing Gibbous, 78% of the Moon is Illuminated
Apr 21
Waxing Gibbous
Apr 25
Full
May 2
Last Quarter
May 10
New
May 18
First Quarter

Hourly Weather History & Observations

Time (BST) Temp. Windchill Dew Point Humidity Pressure Visibility Wind Dir Wind Speed Gust Speed Precip Events Conditions
12:20 AM 46.4 °F 40.1 °F 39.2 °F 76% 30.12 in 6.2 mi SSW 15.0 mph - N/A   Unknown
12:50 AM 46.4 °F 39.0 °F 39.2 °F 76% 30.12 in 6.2 mi SSW 19.6 mph - N/A   Unknown
1:20 AM 46.4 °F 39.8 °F 41.0 °F 81% 30.09 in 6.2 mi SSW 16.1 mph - N/A   Unknown
1:50 AM 48.2 °F - 41.0 °F 76% 30.09 in 6.2 mi SSW 17.3 mph - N/A   Mostly Cloudy
2:20 AM 48.2 °F - 41.0 °F 76% 30.06 in 6.2 mi SSW 13.8 mph - N/A   Partly Cloudy
2:50 AM 46.4 °F 40.7 °F 41.0 °F 81% 30.06 in - SSW 12.7 mph - N/A   Clear
3:20 AM 48.2 °F - 41.0 °F 76% 30.04 in - SSW 16.1 mph - N/A   Clear
3:50 AM 46.4 °F 40.4 °F 41.0 °F 81% 30.04 in - SSW 13.8 mph - N/A   Clear
4:20 AM 46.4 °F 40.1 °F 41.0 °F 81% 30.04 in 6.2 mi SSW 15.0 mph - N/A   Unknown
4:50 AM 46.4 °F 40.1 °F 41.0 °F 81% 30.01 in - SSW 15.0 mph - N/A   Clear
5:20 AM 46.4 °F 40.4 °F 39.2 °F 76% 30.01 in - SSW 13.8 mph - N/A   Clear
5:50 AM 46.4 °F 40.1 °F 39.2 °F 76% 29.98 in - SSW 15.0 mph - N/A   Clear
6:20 AM 46.4 °F 39.2 °F 39.2 °F 76% 29.98 in 6.2 mi SSW 18.4 mph - N/A   Mostly Cloudy
6:50 AM 46.4 °F 39.2 °F 41.0 °F 81% 29.98 in 6.2 mi SSW 18.4 mph - N/A Rain Light Rain
7:20 AM 46.4 °F 39.2 °F 41.0 °F 81% 29.98 in 6.2 mi SSW 18.4 mph - N/A Rain Light Rain
7:50 AM 46.4 °F 39.8 °F 41.0 °F 81% 29.98 in 6.2 mi SSW 16.1 mph - N/A Rain Light Rain
8:20 AM 46.4 °F 40.4 °F 41.0 °F 81% 29.95 in 6.2 mi SSW 13.8 mph - N/A Rain Light Rain
8:50 AM 48.2 °F - 41.0 °F 76% 29.95 in 6.2 mi SSW 13.8 mph - N/A   Scattered Clouds
9:20 AM 48.2 °F - 42.8 °F 82% 29.95 in 6.2 mi SSW 15.0 mph - N/A   Scattered Clouds
9:50 AM 50.0 °F - 42.8 °F 76% 29.92 in 6.2 mi SSW 17.3 mph - N/A Rain Light Rain
10:20 AM 50.0 °F - 44.6 °F 82% 29.92 in 6.2 mi SW 18.4 mph - N/A   Mostly Cloudy
10:50 AM 51.8 °F - 42.8 °F 71% 29.92 in 6.2 mi SW 19.6 mph - N/A Rain Light Rain Showers
11:20 AM 46.4 °F 40.1 °F 42.8 °F 87% 29.92 in 6.2 mi WSW 15.0 mph - N/A Rain Light Rain Showers
11:50 AM 46.4 °F 39.5 °F 42.8 °F 87% 29.92 in 6.2 mi WSW 17.3 mph - N/A   Mostly Cloudy
12:20 PM 48.2 °F - 42.8 °F 82% 29.92 in 6.2 mi WSW 16.1 mph - N/A   Mostly Cloudy
12:50 PM 50.0 °F - 42.8 °F 76% 29.89 in 6.2 mi WSW 17.3 mph - N/A   Mostly Cloudy
1:20 PM 50.0 °F - 41.0 °F 71% 29.89 in 6.2 mi WSW 18.4 mph - N/A   Scattered Clouds
1:50 PM 50.0 °F - 39.2 °F 66% 29.89 in 6.2 mi WSW 17.3 mph - N/A   Mostly Cloudy
2:20 PM 50.0 °F - 41.0 °F 71% 29.89 in 6.2 mi West 13.8 mph - N/A Rain Light Rain Showers
2:50 PM 51.8 °F - 39.2 °F 62% 29.89 in 6.2 mi West 13.8 mph - N/A   Mostly Cloudy
3:20 PM 53.6 °F - 37.4 °F 54% 29.86 in 6.2 mi SW 18.4 mph - N/A   Scattered Clouds
3:50 PM 53.6 °F - 37.4 °F 54% 29.86 in 6.2 mi WSW 16.1 mph - N/A   Scattered Clouds
4:20 PM 51.8 °F - 35.6 °F 54% 29.86 in 6.2 mi WSW 16.1 mph - N/A   Scattered Clouds
4:50 PM 53.6 °F - 37.4 °F 54% 29.86 in 6.2 mi WSW 15.0 mph - N/A   Scattered Clouds
5:20 PM 51.8 °F - 35.6 °F 54% 29.86 in 6.2 mi WSW 17.3 mph - N/A   Scattered Clouds
5:50 PM 51.8 °F - 37.4 °F 58% 29.83 in 6.2 mi WSW 18.4 mph - N/A   Scattered Clouds
6:20 PM 50.0 °F - 35.6 °F 58% 29.86 in 6.2 mi WSW 18.4 mph - N/A   Scattered Clouds
6:50 PM 48.2 °F - 37.4 °F 66% 29.86 in 6.2 mi WSW 17.3 mph - N/A   Scattered Clouds
7:20 PM 48.2 °F - 37.4 °F 66% 29.86 in 6.2 mi WSW 17.3 mph - N/A   Scattered Clouds
7:50 PM 46.4 °F 40.4 °F 39.2 °F 76% 29.86 in 6.2 mi WSW 13.8 mph - N/A   Partly Cloudy
8:20 PM 44.6 °F 38.4 °F 35.6 °F 71% 29.86 in 6.2 mi WSW 12.7 mph - N/A   Partly Cloudy
8:50 PM 44.6 °F 38.8 °F 37.4 °F 76% 29.86 in 6.2 mi SW 11.5 mph - N/A   Partly Cloudy
9:20 PM 42.8 °F 37.5 °F 37.4 °F 81% 29.86 in 6.2 mi SW 9.2 mph - N/A   Partly Cloudy
9:50 PM 42.8 °F 36.6 °F 37.4 °F 81% 29.86 in 6.2 mi SW 11.5 mph - N/A   Partly Cloudy
10:20 PM 42.8 °F 36.2 °F 37.4 °F 81% 29.86 in 6.2 mi SW 12.7 mph - N/A   Unknown
10:50 PM 42.8 °F 35.8 °F 37.4 °F 81% 29.86 in 6.2 mi SW 13.8 mph - N/A   Unknown
11:20 PM 42.8 °F 35.8 °F 37.4 °F 81% 29.86 in - SW 13.8 mph - N/A   Clear
11:50 PM 41.0 °F 34.7 °F 35.6 °F 81% 29.86 in - WSW 10.4 mph - N/A   Clear